Tracking 32938 objects as of 12-Jan-2026
HD Live streaming from Space Station
objects crossing your sky now

STARLINK-36495

Track STARLINK-36495 now!
10-day predictions
STARLINK-36495 is classified as:


NORAD ID: 67311
Int'l Code: 2026-002G
Perigee: 291.4 km
Apogee: 294.0 km
Inclination: 43.0 °
Period: 90.2 minutes
Semi major axis: 6663 km
RCS: Unknown
Launch date: January 4, 2026
Source: United States (US)
Launch site: AIR FORCE EASTERN TEST RANGE (AFETR)
Your satellite tracking list
Your tracking list is empty




NASA's NSSDC Master Catalog

Two Line Element Set (TLE):
1 67311U 26002G   26012.25002315 -.01068483  35485-3 -25098-2 0  9993
2 67311  42.9986 292.9413 0001913 271.4422 153.9241 15.95988723  2503
Source of the keplerian elements: AFSPC